When you browse on this site, cookies collect data to enhance your experience and personalize the content and advertising you see.
Visit our Privacy Policy to learn more. By continuing to use the site, you agree to this use of cookies and data.
  • In Austria
  • List of Countries
  • For 7 days
  • Water Temperature
  • Weather Map
  • News
  • Weather Widgets
  • user-avatar
    Login

    Hourly Weather Bogolyubovka

    Today, 7 June, Sunday

    Time Temperature Precipitation Wind Pressure Humidity
    00:00 +15°C° 0 mm 1 mps 752 mmHg 87%
    01:00 +15°C° 0 mm 1 mps 752 mmHg 87%
    02:00 +15°C° 0 mm 1 mps 752 mmHg 88%
    03:00 +15°C° 0 mm 1 mps 752 mmHg 88%
    04:00 +15°C° 0 mm 1 mps 752 mmHg 89%
    05:00 +16°C° 0 mm 2 mps 752 mmHg 86%
    06:00 +17°C° 0 mm 2 mps 753 mmHg 83%
    07:00 +18°C° 0 mm 3 mps 753 mmHg 80%
    08:00 +19°C° 0.3 mm 3 mps 753 mmHg 77%
    09:00 +20°C° 0.3 mm 3 mps 753 mmHg 74%
    10:00 +21°C° 0.3 mm 3 mps 753 mmHg 71%
    11:00 +21°C° 0.9 mm 3 mps 753 mmHg 72%
    12:00 +21°C° 0.9 mm 3 mps 753 mmHg 74%
    13:00 +20°C° 0.9 mm 3 mps 753 mmHg 75%
    14:00 +20°C° 0.2 mm 3 mps 753 mmHg 76%
    15:00 +20°C° 0.2 mm 2 mps 752 mmHg 77%
    16:00 +19°C° 0.2 mm 2 mps 752 mmHg 79%
    17:00 +19°C° 0.6 mm 2 mps 752 mmHg 82%
    18:00 +18°C° 0.6 mm 3 mps 752 mmHg 86%
    19:00 +18°C° 0.6 mm 4 mps 752 mmHg 89%
    20:00 +17°C° 1.2 mm 3 mps 752 mmHg 91%
    21:00 +17°C° 1.2 mm 3 mps 752 mmHg 93%
    22:00 +17°C° 1.2 mm 3 mps 752 mmHg 95%
    23:00 +16°C° 0.3 mm 3 mps 752 mmHg 95%

    Tomorrow, 8 June, Monday

    Time Temperature Precipitation Wind Pressure Humidity
    00:00 +16°C° 0.3 mm 3 mps 752 mmHg 94%
    01:00 +16°C° 0.3 mm 2 mps 752 mmHg 94%
    02:00 +16°C° 0.1 mm 3 mps 752 mmHg 94%
    03:00 +16°C° 0.1 mm 3 mps 752 mmHg 94%
    04:00 +16°C° 0.1 mm 3 mps 752 mmHg 94%
    05:00 +16°C° 0.5 mm 3 mps 752 mmHg 91%
    06:00 +17°C° 0.5 mm 4 mps 752 mmHg 89%
    07:00 +18°C° 0.5 mm 4 mps 752 mmHg 86%
    08:00 +19°C° 1 mm 5 mps 752 mmHg 81%
    09:00 +20°C° 1 mm 5 mps 753 mmHg 77%
    10:00 +21°C° 1 mm 6 mps 753 mmHg 72%
    11:00 +21°C° 0.7 mm 5 mps 753 mmHg 70%
    12:00 +21°C° 0.7 mm 5 mps 753 mmHg 68%
    13:00 +21°C° 0.7 mm 5 mps 753 mmHg 67%
    14:00 +22°C° 0.1 mm 5 mps 753 mmHg 62%
    15:00 +23°C° 0.1 mm 5 mps 753 mmHg 58%
    16:00 +24°C° 0.1 mm 6 mps 753 mmHg 54%
    17:00 +25°C° 0.1 mm 5 mps 753 mmHg 57%
    18:00 +23°C° 0.1 mm 4 mps 752 mmHg 60%
    19:00 +22°C° 0.1 mm 4 mps 752 mmHg 63%
    20:00 +21°C° 0 mm 4 mps 752 mmHg 63%
    21:00 +20°C° 0 mm 3 mps 753 mmHg 63%
    22:00 +19°C° 0 mm 3 mps 753 mmHg 63%
    23:00 +19°C° 0 mm 4 mps 753 mmHg 62%

    Day after tomorrow, 9 June, Tuesday

    Time Temperature Precipitation Wind Pressure Humidity
    00:00 +19°C° 0 mm 4 mps 753 mmHg 62%
    01:00 +19°C° 0 mm 5 mps 753 mmHg 61%
    02:00 +17°C° 0 mm 5 mps 753 mmHg 60%
    03:00 +17°C° 0 mm 5 mps 753 mmHg 58%
    04:00 +17°C° 0 mm 6 mps 754 mmHg 57%
    05:00 +17°C° 0 mm 6 mps 754 mmHg 58%
    06:00 +19°C° 0 mm 6 mps 754 mmHg 59%
    07:00 +19°C° 0 mm 6 mps 755 mmHg 60%
    08:00 +21°C° 0 mm 7 mps 755 mmHg 56%
    09:00 +23°C° 0 mm 7 mps 755 mmHg 52%
    10:00 +26°C° 0 mm 7 mps 756 mmHg 48%
    11:00 +27°C° 0 mm 7 mps 756 mmHg 45%
    12:00 +28°C° 0 mm 7 mps 756 mmHg 42%
    13:00 +28°C° 0 mm 7 mps 756 mmHg 40%
    14:00 +28°C° 0 mm 7 mps 756 mmHg 40%
    15:00 +28°C° 0 mm 6 mps 756 mmHg 41%
    16:00 +28°C° 0 mm 6 mps 756 mmHg 42%
    17:00 +27°C° 0 mm 6 mps 756 mmHg 48%
    18:00 +26°C° 0 mm 5 mps 755 mmHg 53%
    19:00 +25°C° 0 mm 5 mps 755 mmHg 59%
    20:00 +23°C° 0 mm 5 mps 755 mmHg 59%
    21:00 +22°C° 0 mm 5 mps 756 mmHg 59%
    22:00 +21°C° 0 mm 5 mps 756 mmHg 58%
    23:00 +20°C° 0 mm 5 mps 756 mmHg 58%

    10 June, Wednesday

    Time Temperature Precipitation Wind Pressure Humidity
    00:00 +20°C° 0 mm 4 mps 756 mmHg 58%
    01:00 +19°C° 0 mm 4 mps 756 mmHg 58%
    02:00 +19°C° 0 mm 4 mps 756 mmHg 60%
    03:00 +18°C° 0 mm 4 mps 756 mmHg 62%
    04:00 +18°C° 0 mm 4 mps 756 mmHg 65%
    05:00 +19°C° 0 mm 4 mps 756 mmHg 64%
    06:00 +20°C° 0 mm 5 mps 756 mmHg 63%
    07:00 +21°C° 0 mm 5 mps 756 mmHg 62%
    08:00 +22°C° 0 mm 5 mps 756 mmHg 58%
    09:00 +24°C° 0 mm 6 mps 756 mmHg 54%
    10:00 +26°C° 0 mm 6 mps 756 mmHg 50%
    11:00 +27°C° 0 mm 6 mps 756 mmHg 48%
    12:00 +28°C° 0 mm 6 mps 756 mmHg 46%
    13:00 +29°C° 0 mm 6 mps 756 mmHg 45%
    14:00 +28°C° 0 mm 5 mps 756 mmHg 46%
    15:00 +28°C° 0 mm 4 mps 756 mmHg 47%
    16:00 +28°C° 0 mm 3 mps 756 mmHg 48%
    17:00 +27°C° 0 mm 3 mps 756 mmHg 51%
    18:00 +27°C° 0 mm 3 mps 756 mmHg 55%
    19:00 +26°C° 0 mm 2 mps 756 mmHg 58%
    20:00 +25°C° 0 mm 3 mps 755 mmHg 57%
    21:00 +24°C° 0 mm 3 mps 755 mmHg 57%
    22:00 +22°C° 0 mm 4 mps 755 mmHg 56%
    23:00 +22°C° 0 mm 4 mps 755 mmHg 56%

    11 June, Thursday

    Time Temperature Precipitation Wind Pressure Humidity
    00:00 +21°C° 0 mm 4 mps 755 mmHg 57%
    01:00 +21°C° 0 mm 4 mps 755 mmHg 57%
    02:00 +21°C° 0 mm 4 mps 755 mmHg 58%
    03:00 +20°C° 0 mm 3 mps 755 mmHg 59%
    04:00 +20°C° 0 mm 3 mps 755 mmHg 59%
    05:00 +21°C° 0 mm 3 mps 755 mmHg 61%
    06:00 +21°C° 0 mm 3 mps 755 mmHg 63%
    07:00 +22°C° 0 mm 3 mps 755 mmHg 64%
    08:00 +25°C° 0 mm 4 mps 755 mmHg 60%
    09:00 +26°C° 0 mm 5 mps 755 mmHg 56%
    10:00 +28°C° 0 mm 5 mps 755 mmHg 52%
    11:00 +29°C° 0 mm 5 mps 755 mmHg 49%
    12:00 +30°C° 0 mm 5 mps 755 mmHg 46%
    13:00 +32°C° 0 mm 4 mps 754 mmHg 43%
    14:00 +32°C° 0 mm 4 mps 754 mmHg 42%
    15:00 +32°C° 0 mm 4 mps 754 mmHg 42%
    16:00 +32°C° 0 mm 4 mps 753 mmHg 41%
    17:00 +30°C° 0 mm 3 mps 753 mmHg 45%
    18:00 +30°C° 0 mm 3 mps 753 mmHg 49%
    19:00 +29°C° 0 mm 2 mps 752 mmHg 53%
    20:00 +27°C° 0 mm 2 mps 752 mmHg 53%
    21:00 +26°C° 0 mm 2 mps 752 mmHg 54%
    22:00 +24°C° 0 mm 2 mps 752 mmHg 54%
    23:00 +24°C° 0 mm 2 mps 752 mmHg 54%

    12 June, Friday

    Time Temperature Precipitation Wind Pressure Humidity
    00:00 +23°C° 0 mm 2 mps 752 mmHg 55%
    01:00 +23°C° 0 mm 2 mps 751 mmHg 55%
    02:00 +21°C° 0.2 mm 2 mps 751 mmHg 56%
    03:00 +21°C° 0.2 mm 2 mps 751 mmHg 56%
    04:00 +21°C° 0.2 mm 1 mps 751 mmHg 56%
    05:00 +21°C° 0.1 mm 2 mps 751 mmHg 57%
    06:00 +23°C° 0.1 mm 2 mps 751 mmHg 57%
    07:00 +24°C° 0.1 mm 2 mps 750 mmHg 57%
    08:00 +25°C° 0.1 mm 2 mps 750 mmHg 55%
    09:00 +26°C° 0.1 mm 2 mps 750 mmHg 53%
    10:00 +27°C° 0.1 mm 2 mps 750 mmHg 52%
    11:00 +28°C° 0 mm 3 mps 750 mmHg 48%
    12:00 +30°C° 0 mm 3 mps 750 mmHg 45%
    13:00 +31°C° 0 mm 3 mps 750 mmHg 42%
    14:00 +31°C° 0 mm 3 mps 749 mmHg 41%
    15:00 +32°C° 0 mm 4 mps 749 mmHg 40%
    16:00 +32°C° 0 mm 4 mps 748 mmHg 39%
    17:00 +31°C° 0 mm 3 mps 748 mmHg 44%
    18:00 +30°C° 0 mm 2 mps 748 mmHg 49%
    19:00 +29°C° 0 mm 2 mps 747 mmHg 55%
    20:00 +26°C° 0.6 mm 3 mps 747 mmHg 60%
    21:00 +22°C° 0.6 mm 4 mps 747 mmHg 64%
    22:00 +20°C° 0.6 mm 5 mps 747 mmHg 69%
    23:00 +20°C° 0.1 mm 5 mps 747 mmHg 66%
    Show more